OK1OBR-13 Weather Reports


time (UTC)temp
C
wind
direction
speed
KPH
gust
KPH
rain 1hr
cm
rain 24hr
cm
rain mn
cm
humidity
%
barometer
mb
20260502232401 13 141 3.2 4.8 0.00 0.00 0.00 44 940.8
20260502232304 13 163 3.2 4.8 0.00 0.00 0.00 44 941.1
20260502232201 13 161 3.2 4.8 0.00 0.00 0.00 44 941.0
20260502232101 13 163 3.2 3.2 0.00 0.00 0.00 43 941.0
20260502232001 13 165 3.2 4.8 0.00 0.00 0.00 44 941.0
20260502231901 13 162 3.2 4.8 0.00 0.00 0.00 43 940.9
20260502231801 13 152 3.2 4.8 0.00 0.00 0.00 43 940.9
20260502231701 13 175 3.2 3.2 0.00 0.00 0.00 43 940.9
20260502231601 13 161 1.6 3.2 0.00 0.00 0.00 43 941.0
20260502231501 13 163 3.2 3.2 0.00 0.00 0.00 42 940.8
20260502231401 13 156 1.6 3.2 0.00 0.00 0.00 42 940.9
20260502231301 13 139 3.2 3.2 0.00 0.00 0.00 42 940.7
20260502231200 13 154 3.2 4.8 0.00 0.00 0.00 42 940.9
20260502231101 13 132 3.2 4.8 0.00 0.00 0.00 42 940.9
20260502231001 13 152 3.2 3.2 0.00 0.00 0.00 42 940.8
20260502230901 13 146 1.6 3.2 0.00 0.00 0.00 43 940.9
20260502230802 13 153 3.2 3.2 0.00 0.00 0.00 43 940.8
20260502230701 13 151 3.2 3.2 0.00 0.00 0.00 43 940.9
20260502230601 13 170 3.2 3.2 0.00 0.00 0.00 42 940.8
20260502230501 14 167 1.6 3.2 0.00 0.00 0.00 42 940.9
20260502230401 14 144 3.2 3.2 0.00 0.00 0.00 42 940.8
20260502230301 14 157 3.2 4.8 0.00 0.00 0.00 42 940.8
20260502230201 14 145 3.2 4.8 0.00 0.00 0.00 41 940.8
20260502230101 14 149 3.2 3.2 0.00 0.00 0.00 41 940.7
20260502230001 14 143 3.2 4.8 0.00 0.00 0.00 41 940.6
20260502225901 14 161 3.2 4.8 0.00 0.00 0.00 41 940.9
20260502225801 14 157 3.2 3.2 0.00 0.00 0.00 41 940.9
20260502225700 14 165 3.2 3.2 0.00 0.00 0.00 42 941.0
20260502225601 14 150 3.2 4.8 0.00 0.00 0.00 41 940.8
20260502225501 14 186 3.2 4.8 0.00 0.00 0.00 41 940.8
20260502225401 14 157 3.2 3.2 0.00 0.00 0.00 41 940.9
20260502225301 14 148 1.6 3.2 0.00 0.00 0.00 41 940.9
20260502225202 14 147 1.6 4.8 0.00 0.00 0.00 41 940.9
20260502225100 14 151 3.2 4.8 0.00 0.00 0.00 40 940.9
20260502225001 14 154 3.2 4.8 0.00 0.00 0.00 40 940.7
20260502224901 14 155 3.2 4.8 0.00 0.00 0.00 41 940.8
20260502224801 14 158 3.2 4.8 0.00 0.00 0.00 41 941.0
20260502224701 14 162 3.2 3.2 0.00 0.00 0.00 41 940.8
20260502224601 14 162 3.2 4.8 0.00 0.00 0.00 41 940.9
20260502224501 14 138 3.2 4.8 0.00 0.00 0.00 41 941.0
20260502224401 14 166 3.2 4.8 0.00 0.00 0.00 40 940.8
20260502224301 14 175 3.2 4.8 0.00 0.00 0.00 41 941.1
20260502224201 14 162 3.2 4.8 0.00 0.00 0.00 41 941.0
20260502224100 14 169 3.2 4.8 0.00 0.00 0.00 40 941.0
20260502224001 14 158 3.2 4.8 0.00 0.00 0.00 41 940.8
20260502223901 15 163 3.2 4.8 0.00 0.00 0.00 40 941.1
20260502223801 15 150 3.2 4.8 0.00 0.00 0.00 40 941.1
20260502223701 14 167 3.2 4.8 0.00 0.00 0.00 40 940.9
20260502223601 14 141 3.2 4.8 0.00 0.00 0.00 40 940.9
20260502223501 14 165 3.2 4.8 0.00 0.00 0.00 40 940.9
20260502223401 14 183 3.2 4.8 0.00 0.00 0.00 40 941.1
20260502223300 14 160 3.2 4.8 0.00 0.00 0.00 40 941.0
20260502223201 14 160 3.2 4.8 0.00 0.00 0.00 40 941.0
20260502223101 14 153 3.2 4.8 0.00 0.00 0.00 41 940.8
20260502223000 14 169 3.2 4.8 0.00 0.00 0.00 41 940.8
20260502222900 14 161 3.2 3.2 0.00 0.00 0.00 41 941.1
20260502222800 15 143 3.2 3.2 0.00 0.00 0.00 41 941.0
20260502222701 15 154 3.2 3.2 0.00 0.00 0.00 41 941.0
20260502222601 15 156 3.2 3.2 0.00 0.00 0.00 40 940.9
20260502222501 15 156 3.2 4.8 0.00 0.00 0.00 41 940.9
20260502222401 15 168 3.2 4.8 0.00 0.00 0.00 40 941.0
20260502222301 15 152 3.2 4.8 0.00 0.00 0.00 40 941.1
20260502222201 15 166 3.2 4.8 0.00 0.00 0.00 40 940.9
20260502222101 15 176 3.2 4.8 0.00 0.00 0.00 40 940.8
20260502222001 15 166 3.2 4.8 0.00 0.00 0.00 40 940.9
20260502221901 15 164 3.2 4.8 0.00 0.00 0.00 40 941.0
20260502221800 15 167 3.2 4.8 0.00 0.00 0.00 40 941.0
20260502221701 15 157 4.8 4.8 0.00 0.00 0.00 40 940.9
20260502221601 15 172 3.2 4.8 0.00 0.00 0.00 40 940.9
20260502221501 15 139 3.2 4.8 0.00 0.00 0.00 40 941.1
20260502221401 15 157 4.8 4.8 0.00 0.00 0.00 40 941.0
20260502221301 15 170 3.2 4.8 0.00 0.00 0.00 40 940.9
20260502221201 15 161 1.6 4.8 0.00 0.00 0.00 40 940.9
20260502221101 15 176 4.8 4.8 0.00 0.00 0.00 40 941.1
20260502221001 15 169 3.2 4.8 0.00 0.00 0.00 40 940.8
20260502220901 15 140 3.2 4.8 0.00 0.00 0.00 41 941.0
20260502220801 15 172 4.8 4.8 0.00 0.00 0.00 40 941.0
20260502220701 15 169 3.2 4.8 0.00 0.00 0.00 40 941.0
20260502220601 15 165 1.6 4.8 0.00 0.00 0.00 40 941.0
20260502220501 15 152 3.2 4.8 0.00 0.00 0.00 40 940.9
20260502220400 15 159 3.2 4.8 0.00 0.00 0.00 40 940.8
20260502220301 15 154 3.2 3.2 0.00 0.00 0.00 40 941.1
20260502220202 15 168 3.2 4.8 0.00 0.00 0.00 40 940.9
20260502220100 15 176 3.2 4.8 0.00 0.00 0.00 40 941.0
20260502220001 15 180 3.2 4.8 0.00 0.00 0.00 40 940.9
20260502215900 15 154 3.2 4.8 0.00 0.00 0.00 40 940.9
20260502215801 15 154 3.2 4.8 0.00 0.00 0.00 40 941.0
20260502215701 15 165 3.2 4.8 0.00 0.00 0.00 39 941.1
20260502215601 15 158 3.2 4.8 0.00 0.00 0.00 40 941.0
20260502215500 15 145 3.2 3.2 0.00 0.00 0.00 39 940.8
20260502215401 15 172 3.2 4.8 0.00 0.00 0.00 39 941.1
20260502215301 15 157 3.2 4.8 0.00 0.00 0.00 38 940.9
20260502215201 15 160 3.2 4.8 0.00 0.00 0.00 39 940.9
20260502215101 15 132 4.8 4.8 0.00 0.00 0.00 39 940.8
20260502215001 15 164 3.2 4.8 0.00 0.00 0.00 40 940.8
20260502214900 15 156 3.2 4.8 0.00 0.00 0.00 40 940.9
20260502214801 15 165 3.2 4.8 0.00 0.00 0.00 39 940.9
20260502214701 15 169 3.2 4.8 0.00 0.00 0.00 39 941.0
20260502214601 15 155 4.8 4.8 0.00 0.00 0.00 39 941.1
20260502214501 15 155 3.2 4.8 0.00 0.00 0.00 40 941.0
20260502214401 15 133 3.2 4.8 0.00 0.00 0.00 40 940.9
20260502214301 15 138 3.2 4.8 0.00 0.00 0.00 39 940.9
20260502214201 15 142 3.2 4.8 0.00 0.00 0.00 40 941.0
20260502214101 15 152 3.2 4.8 0.00 0.00 0.00 40 941.1
20260502214001 15 175 3.2 4.8 0.00 0.00 0.00 40 941.0
20260502213901 15 128 3.2 4.8 0.00 0.00 0.00 40 941.0
20260502213801 15 158 3.2 6.4 0.00 0.00 0.00 40 941.1
20260502213700 15 181 3.2 6.4 0.00 0.00 0.00 40 941.1
20260502213601 15 136 3.2 4.8 0.00 0.00 0.00 40 941.1
20260502213500 15 149 3.2 4.8 0.00 0.00 0.00 40 941.0
20260502213401 15 160 3.2 4.8 0.00 0.00 0.00 40 941.2
20260502213301 15 153 3.2 4.8 0.00 0.00 0.00 40 941.2
20260502213201 15 153 3.2 4.8 0.00 0.00 0.00 40 941.2
20260502213101 15 157 4.8 4.8 0.00 0.00 0.00 40 941.1
20260502213001 15 156 3.2 4.8 0.00 0.00 0.00 40 941.1
20260502212902 15 141 4.8 4.8 0.00 0.00 0.00 40 941.2
20260502212801 15 149 3.2 4.8 0.00 0.00 0.00 40 941.3
20260502212702 15 143 3.2 4.8 0.00 0.00 0.00 41 941.1
20260502212601 15 163 4.8 4.8 0.00 0.00 0.00 41 941.3
20260502212501 15 177 3.2 4.8 0.00 0.00 0.00 42 941.2
20260502212401 15 159 3.2 4.8 0.00 0.00 0.00 41 941.2
20260502212305 15 157 3.2 4.8 0.00 0.00 0.00 42 941.3
20260502212201 15 140 3.2 4.8 0.00 0.00 0.00 42 941.1
20260502212101 15 148 3.2 4.8 0.00 0.00 0.00 42 941.0
20260502212001 15 136 3.2 4.8 0.00 0.00 0.00 42 941.2
20260502211901 15 141 3.2 4.8 0.00 0.00 0.00 42 941.2
20260502211801 15 137 3.2 4.8 0.00 0.00 0.00 42 941.1
20260502211701 15 143 4.8 4.8 0.00 0.00 0.00 42 941.1
20260502211601 15 156 3.2 4.8 0.00 0.00 0.00 42 941.1
20260502211501 15 147 4.8 4.8 0.00 0.00 0.00 41 941.0
20260502211401 15 156 4.8 6.4 0.00 0.00 0.00 42 941.1
20260502211301 15 135 4.8 6.4 0.00 0.00 0.00 42 940.9
20260502211201 15 149 4.8 6.4 0.00 0.00 0.00 42 941.1
20260502211101 15 150 4.8 6.4 0.00 0.00 0.00 42 941.3
20260502211001 15 155 3.2 6.4 0.00 0.00 0.00 42 941.1
20260502210901 15 158 4.8 6.4 0.00 0.00 0.00 42 941.1
20260502210801 15 144 4.8 4.8 0.00 0.00 0.00 42 941.1
20260502210702 15 139 4.8 4.8 0.00 0.00 0.00 42 941.1
20260502210601 15 139 4.8 4.8 0.00 0.00 0.00 42 941.1
20260502210501 15 143 3.2 4.8 0.00 0.00 0.00 42 941.5
20260502210401 15 146 4.8 4.8 0.00 0.00 0.00 42 941.2
20260502210300 15 151 4.8 4.8 0.00 0.00 0.00 42 941.1
20260502210201 15 166 4.8 6.4 0.00 0.00 0.00 42 941.1
20260502210101 15 138 6.4 6.4 0.00 0.00 0.00 41 941.1
20260502210001 15 153 3.2 4.8 0.00 0.00 0.00 42 941.1
20260502205901 15 134 4.8 4.8 0.00 0.00 0.00 41 941.0
20260502205801 15 143 3.2 4.8 0.00 0.00 0.00 41 941.1
20260502205702 15 144 4.8 6.4 0.00 0.00 0.00 41 941.1
20260502205601 15 131 4.8 6.4 0.00 0.00 0.00 41 941.2
20260502205501 15 132 4.8 6.4 0.00 0.00 0.00 41 941.2
20260502205401 15 141 4.8 6.4 0.00 0.00 0.00 41 941.2
20260502205300 15 153 4.8 6.4 0.00 0.00 0.00 41 941.1
20260502205202 15 160 6.4 6.4 0.00 0.00 0.00 41 941.0
20260502205101 15 151 4.8 4.8 0.00 0.00 0.00 41 941.0
20260502205001 15 149 4.8 6.4 0.00 0.00 0.00 41 941.3
20260502204901 15 156 4.8 6.4 0.00 0.00 0.00 41 941.1
20260502204801 15 142 4.8 6.4 0.00 0.00 0.00 41 941.3
20260502204701 15 168 4.8 6.4 0.00 0.00 0.00 41 941.1
20260502204602 15 166 3.2 6.4 0.00 0.00 0.00 42 941.2
20260502204501 15 153 4.8 6.4 0.00 0.00 0.00 41 941.3
20260502204400 15 157 4.8 6.4 0.00 0.00 0.00 42 941.2
20260502204301 15 154 4.8 6.4 0.00 0.00 0.00 41 941.2
20260502204201 15 147 4.8 6.4 0.00 0.00 0.00 41 941.1
20260502204101 15 153 4.8 4.8 0.00 0.00 0.00 41 941.4
20260502204001 15 138 3.2 4.8 0.00 0.00 0.00 41 941.1
20260502203901 15 134 3.2 4.8 0.00 0.00 0.00 41 941.2
20260502203801 15 143 4.8 4.8 0.00 0.00 0.00 41 941.1
20260502203701 15 134 3.2 4.8 0.00 0.00 0.00 42 941.1
20260502203601 15 168 3.2 4.8 0.00 0.00 0.00 42 941.4
20260502203501 15 140 3.2 4.8 0.00 0.00 0.00 42 941.2
20260502203401 15 132 1.6 3.2 0.00 0.00 0.00 42 941.2
20260502203301 15 131 1.6 3.2 0.00 0.00 0.00 42 941.3
20260502203201 15 126 3.2 4.8 0.00 0.00 0.00 41 941.3
20260502203101 15 139 3.2 4.8 0.00 0.00 0.00 40 941.3
20260502203001 15 139 3.2 4.8 0.00 0.00 0.00 40 941.3
20260502202901 15 142 3.2 4.8 0.00 0.00 0.00 41 941.3
20260502202801 15 151 1.6 4.8 0.00 0.00 0.00 41 941.3
20260502202701 15 164 3.2 4.8 0.00 0.00 0.00 40 941.2
20260502202600 15 138 3.2 4.8 0.00 0.00 0.00 40 941.2
20260502202501 15 148 4.8 4.8 0.00 0.00 0.00 40 941.5
20260502202400 15 141 3.2 4.8 0.00 0.00 0.00 39 941.3
20260502202301 15 125 3.2 4.8 0.00 0.00 0.00 40 941.2
20260502202201 15 153 3.2 4.8 0.00 0.00 0.00 39 941.5
20260502202101 15 147 4.8 4.8 0.00 0.00 0.00 39 941.2
20260502202001 15 131 3.2 4.8 0.00 0.00 0.00 39 941.3
20260502201901 15 138 3.2 3.2 0.00 0.00 0.00 39 941.2
20260502201805 15 146 3.2 3.2 0.00 0.00 0.00 39 941.3
20260502201701 15 128 3.2 3.2 0.00 0.00 0.00 39 941.1
20260502201601 16 136 1.6 3.2 0.00 0.00 0.00 38 941.4
20260502201501 16 155 1.6 3.2 0.00 0.00 0.00 38 941.2
20260502201401 16 147 1.6 3.2 0.00 0.00 0.00 38 941.4
20260502201301 16 119 1.6 3.2 0.00 0.00 0.00 38 941.3
20260502201201 16 136 1.6 3.2 0.00 0.00 0.00 37 941.2
20260502201105 16 124 1.6 3.2 0.00 0.00 0.00 37 941.3
20260502201001 16 134 1.6 3.2 0.00 0.00 0.00 36 941.5
20260502200901 16 145 1.6 3.2 0.00 0.00 0.00 36 941.4
20260502200801 16 136 3.2 3.2 0.00 0.00 0.00 36 941.3
20260502200702 16 141 1.6 3.2 0.00 0.00 0.00 36 941.4
20260502200601 16 156 1.6 3.2 0.00 0.00 0.00 36 941.3
20260502200501 16 141 3.2 3.2 0.00 0.00 0.00 35 941.3
20260502200405 16 160 1.6 3.2 0.00 0.00 0.00 36 941.3
20260502200302 16 150 3.2 3.2 0.00 0.00 0.00 36 941.4
20260502200201 16 148 3.2 3.2 0.00 0.00 0.00 36 941.4
20260502200101 16 141 1.6 3.2 0.00 0.00 0.00 36 941.4
20260502200001 16 149 1.6 3.2 0.00 0.00 0.00 36 941.3
20260502195900 16 155 1.6 3.2 0.00 0.00 0.00 36 941.3
20260502195801 16 167 1.6 3.2 0.00 0.00 0.00 36 941.0
20260502195701 16 152 1.6 3.2 0.00 0.00 0.00 36 941.2
20260502195600 16 156 1.6 3.2 0.00 0.00 0.00 37 941.3
20260502195501 16 134 1.6 3.2 0.00 0.00 0.00 37 941.4
20260502195401 16 152 1.6 3.2 0.00 0.00 0.00 37 941.4
20260502195301 16 159 1.6 3.2 0.00 0.00 0.00 37 941.3
20260502195200 16 123 1.6 3.2 0.00 0.00 0.00 37 941.3
20260502195101 16 124 1.6 3.2 0.00 0.00 0.00 37 941.5
20260502195001 16 121 1.6 1.6 0.00 0.00 0.00 37 941.2
20260502194901 16 130 1.6 1.6 0.00 0.00 0.00 37 941.5
20260502194801 16 135 1.6 1.6 0.00 0.00 0.00 37 941.5
20260502194701 16 141 1.6 1.6 0.00 0.00 0.00 37 941.3
20260502194601 16 138 1.6 3.2 0.00 0.00 0.00 37 941.4
20260502194501 16 138 1.6 3.2 0.00 0.00 0.00 37 941.6
20260502194401 16 143 1.6 1.6 0.00 0.00 0.00 37 941.6
20260502194305 16 151 1.6 1.6 0.00 0.00 0.00 37 941.5
20260502194201 16 134 1.6 1.6 0.00 0.00 0.00 37 941.6
20260502194101 16 138 1.6 3.2 0.00 0.00 0.00 37 941.5
20260502194001 16 147 1.6 3.2 0.00 0.00 0.00 37 941.4
20260502193901 16 145 1.6 1.6 0.00 0.00 0.00 38 941.3
20260502193801 16 134 1.6 1.6 0.00 0.00 0.00 38 941.6
20260502193700 16 131 1.6 1.6 0.00 0.00 0.00 38 941.4
20260502193601 17 129 1.6 1.6 0.00 0.00 0.00 37 941.3
20260502193501 17 123 1.6 1.6 0.00 0.00 0.00 37 941.5
20260502193401 17 127 1.6 1.6 0.00 0.00 0.00 37 941.4
20260502193301 17 124 1.6 1.6 0.00 0.00 0.00 37 941.5
20260502193201 17 124 1.6 1.6 0.00 0.00 0.00 37 941.6
20260502193101 17 127 1.6 1.6 0.00 0.00 0.00 37 941.3
20260502193001 17 127 1.6 1.6 0.00 0.00 0.00 37 941.3
20260502192901 17 123 1.6 1.6 0.00 0.00 0.00 37 941.4
20260502192801 16 118 1.6 1.6 0.00 0.00 0.00 37 941.5
20260502192701 16 118 1.6 1.6 0.00 0.00 0.00 37 941.5
20260502192601 16 113 1.6 1.6 0.00 0.00 0.00 37 941.5
20260502192501 16 111 1.6 1.6 0.00 0.00 0.00 37 941.3
20260502192401 16 121 1.6 1.6 0.00 0.00 0.00 37 941.4
20260502192301 17 119 1.6 1.6 0.00 0.00 0.00 37 941.4
20260502192201 17 118 1.6 1.6 0.00 0.00 0.00 37 941.5
20260502192101 17 117 1.6 1.6 0.00 0.00 0.00 37 941.5
20260502192002 17 121 1.6 1.6 0.00 0.00 0.00 37 941.3
20260502191901 17 118 1.6 1.6 0.00 0.00 0.00 36 941.5
20260502191801 17 124 1.6 1.6 0.00 0.00 0.00 36 941.2
20260502191701 17 114 1.6 1.6 0.00 0.00 0.00 36 941.5
20260502191600 17 121 1.6 1.6 0.00 0.00 0.00 36 941.4
20260502191500 17 120 1.6 1.6 0.00 0.00 0.00 36 941.4
20260502191401 17 124 1.6 1.6 0.00 0.00 0.00 35 941.6
20260502191301 17 123 1.6 1.6 0.00 0.00 0.00 36 941.5
20260502191200 17 115 1.6 1.6 0.00 0.00 0.00 35 941.5
20260502191101 17 112 1.6 1.6 0.00 0.00 0.00 35 941.5
20260502191002 17 89 1.6 1.6 0.00 0.00 0.00 35 941.4
20260502190901 17 103 1.6 1.6 0.00 0.00 0.00 36 941.8
20260502190801 17 107 1.6 1.6 0.00 0.00 0.00 36 941.3
20260502190701 17 104 1.6 1.6 0.00 0.00 0.00 36 941.4
20260502190600 17 107 1.6 1.6 0.00 0.00 0.00 36 941.5
20260502190501 17 111 1.6 1.6 0.00 0.00 0.00 36 941.5
20260502190401 17 106 1.6 1.6 0.00 0.00 0.00 36 941.4
20260502190302 17 106 1.6 1.6 0.00 0.00 0.00 36 941.6
20260502190201 17 100 1.6 1.6 0.00 0.00 0.00 35 941.1
20260502190001 17 102 1.6 1.6 0.00 0.00 0.00 35 941.2
20260502185901 17 103 1.6 1.6 0.00 0.00 0.00 35 941.4
20260502185801 17 106 1.6 1.6 0.00 0.00 0.00 35 941.4
20260502185701 17 103 1.6 1.6 0.00 0.00 0.00 35 941.3
20260502185601 17 87 1.6 1.6 0.00 0.00 0.00 35 941.3
20260502185500 17 94 1.6 1.6 0.00 0.00 0.00 35 941.4
20260502185401 17 103 1.6 1.6 0.00 0.00 0.00 35 941.4
20260502185301 17 92 1.6 1.6 0.00 0.00 0.00 35 941.6
20260502185201 17 90 1.6 1.6 0.00 0.00 0.00 35 941.3
20260502185101 17 93 1.6 1.6 0.00 0.00 0.00 35 941.4
20260502185001 17 87 1.6 1.6 0.00 0.00 0.00 35 941.5
20260502184902 17 84 1.6 1.6 0.00 0.00 0.00 36 941.5
20260502184801 17 82 1.6 1.6 0.00 0.00 0.00 36 941.6
20260502184701 17 82 0.0 1.6 0.00 0.00 0.00 36 941.4
20260502184602 17 81 1.6 1.6 0.00 0.00 0.00 36 941.4
20260502184501 17 72 1.6 1.6 0.00 0.00 0.00 36 941.5
20260502184401 17 83 0.0 1.6 0.00 0.00 0.00 36 941.6
20260502184301 17 77 1.6 1.6 0.00 0.00 0.00 36 941.4
20260502184201 17 80 1.6 1.6 0.00 0.00 0.00 36 941.5
20260502184101 17 66 1.6 1.6 0.00 0.00 0.00 36 941.5
20260502184001 17 70 1.6 1.6 0.00 0.00 0.00 37 941.5
20260502183901 17 73 1.6 1.6 0.00 0.00 0.00 37 941.4
20260502183801 17 70 1.6 1.6 0.00 0.00 0.00 37 941.6
20260502183701 17 77 1.6 1.6 0.00 0.00 0.00 37 941.5
20260502183601 17 71 1.6 1.6 0.00 0.00 0.00 37 941.3
20260502183502 17 66 1.6 1.6 0.00 0.00 0.00 37 941.5
20260502183401 17 66 1.6 1.6 0.00 0.00 0.00 37 941.4
20260502183301 17 63 1.6 1.6 0.00 0.00 0.00 37 941.5
20260502183201 17 63 1.6 1.6 0.00 0.00 0.00 38 941.5
20260502183101 17 59 1.6 1.6 0.00 0.00 0.00 37 941.5
20260502183001 17 61 1.6 1.6 0.00 0.00 0.00 37 941.3
20260502182901 17 59 1.6 1.6 0.00 0.00 0.00 37 941.4
20260502182801 17 59 1.6 1.6 0.00 0.00 0.00 37 941.4
20260502182701 17 60 1.6 1.6 0.00 0.00 0.00 37 941.5
20260502182601 17 53 0.0 1.6 0.00 0.00 0.00 37 941.6
20260502182501 17 70 0.0 1.6 0.00 0.00 0.00 37 941.6
20260502182401 17 77 1.6 1.6 0.00 0.00 0.00 37 941.5
20260502182301 17 51 0.0 1.6 0.00 0.00 0.00 37 941.5
20260502182201 17 68 0.0 1.6 0.00 0.00 0.00 37 941.4
20260502182101 17 68 0.0 1.6 0.00 0.00 0.00 37 941.5
20260502182001 17 66 0.0 1.6 0.00 0.00 0.00 37 941.5
20260502181901 17 67 0.0 1.6 0.00 0.00 0.00 37 941.5
20260502181801 17 66 0.0 1.6 0.00 0.00 0.00 37 941.4
20260502181701 17 65 0.0 1.6 0.00 0.00 0.00 37 941.2
20260502181601 17 71 0.0 1.6 0.00 0.00 0.00 37 941.2
20260502181500 17 66 0.0 1.6 0.00 0.00 0.00 37 941.2
20260502181401 17 68 0.0 1.6 0.00 0.00 0.00 37 941.4
20260502181301 17 85 0.0 1.6 0.00 0.00 0.00 37 941.4
20260502181200 17 75 0.0 1.6 0.00 0.00 0.00 37 941.3
20260502181101 17 69 0.0 1.6 0.00 0.00 0.00 37 941.3
20260502181001 17 78 0.0 1.6 0.00 0.00 0.00 37 941.2
20260502180901 17 80 0.0 1.6 0.00 0.00 0.00 37 941.3
20260502180801 17 68 0.0 1.6 0.00 0.00 0.00 37 941.3
20260502180700 18 66 0.0 1.6 0.00 0.00 0.00 37 941.2
20260502180600 17 72 1.6 1.6 0.00 0.00 0.00 37 941.3
20260502180503 17 74 1.6 1.6 0.00 0.00 0.00 37 941.1
20260502180401 17 74 0.0 1.6 0.00 0.00 0.00 37 941.5
20260502180301 17 72 1.6 1.6 0.00 0.00 0.00 37 941.4
20260502180201 17 69 0.0 1.6 0.00 0.00 0.00 37 941.5
20260502170501 18 54 1.6 1.6 0.00 0.00 0.00 41 941.3
20260502170401 18 51 1.6 3.2 0.00 0.00 0.00 42 941.5
20260502170301 18 57 1.6 3.2 0.00 0.00 0.00 40 941.6
20260502170201 18 56 1.6 3.2 0.00 0.00 0.00 41 941.6
20260502164300 19 80 1.6 1.6 0.00 0.00 0.00 42 941.5
20260502164201 19 91 0.0 1.6 0.00 0.00 0.00 43 941.6
20260502164101 19 117 1.6 1.6 0.00 0.00 0.00 41 941.6
20260502164001 19 73 1.6 3.2 0.00 0.00 0.00 39 941.6
20260502163902 20 127 1.6 3.2 0.00 0.00 0.00 38 941.7
20260502163802 20 106 1.6 3.2 0.00 0.00 0.00 43 941.6
20260502163700 20 80 1.6 3.2 0.00 0.00 0.00 40 941.7
20260502163601 20 91 1.6 1.6 0.00 0.00 0.00 41 941.7
20260502163501 19 52 1.6 1.6 0.00 0.00 0.00 43 941.7
20260502163401 19 94 1.6 1.6 0.00 0.00 0.00 40 941.7
20260502163301 19 63 0.0 1.6 0.00 0.00 0.00 42 941.8
20260502163201 20 59 1.6 1.6 0.00 0.00 0.00 41 941.7
20260502163101 20 59 0.0 1.6 0.00 0.00 0.00 42 941.8
20260502163002 20 111 1.6 1.6 0.00 0.00 0.00 39 941.6
20260502162902 20 82 1.6 1.6 0.00 0.00 0.00 39 941.9
20260502162801 20 99 1.6 1.6 0.00 0.00 0.00 39 941.8
20260502162708 20 99 1.6 1.6 0.00 0.00 0.00 39 941.8
20260502162601 20 110 1.6 1.6 0.00 0.00 0.00 39 941.7
20260502162501 20 102 0.0 1.6 0.00 0.00 0.00 39 941.9
20260502162401 20 72 0.0 1.6 0.00 0.00 0.00 39 941.8
20260502162304 20 55 1.6 1.6 0.00 0.00 0.00 38 941.7
20260502162201 20 57 0.0 1.6 0.00 0.00 0.00 38 941.8
20260502162101 20 60 1.6 1.6 0.00 0.00 0.00 40 941.6
20260502162002 20 66 1.6 1.6 0.00 0.00 0.00 39 941.9
20260502161901 20 114 1.6 1.6 0.00 0.00 0.00 39 942.0
20260502161802 20 115 1.6 1.6 0.00 0.00 0.00 37 941.8
20260502161701 20 129 0.0 1.6 0.00 0.00 0.00 37 941.8
20260502161601 20 90 0.0 1.6 0.00 0.00 0.00 36 942.2
20260502161501 20 155 0.0 1.6 0.00 0.00 0.00 36 941.9
20260502161401 20 152 0.0 1.6 0.00 0.00 0.00 35 942.0
20260502161307 20 181 1.6 1.6 0.00 0.00 0.00 34 941.7
20260502161201 20 155 1.6 1.6 0.00 0.00 0.00 38 942.0
20260502161102 20 125 1.6 1.6 0.00 0.00 0.00 38 942.0
20260502161001 20 174 1.6 1.6 0.00 0.00 0.00 40 941.9
20260502160901 20 163 1.6 1.6 0.00 0.00 0.00 37 942.0
20260502160801 20 161 0.0 1.6 0.00 0.00 0.00 37 942.1
20260502160701 20 131 0.0 1.6 0.00 0.00 0.00 36 942.0
20260502160602 20 110 0.0 0.0 0.00 0.00 0.00 35 941.9
20260502160501 20 110 0.0 1.6 0.00 0.00 0.00 36 942.2
20260502160401 20 139 0.0 1.6 0.00 0.00 0.00 36 942.0
20260502160302 20 89 0.0 1.6 0.00 0.00 0.00 36 942.1
20260502160201 20 82 0.0 1.6 0.00 0.00 0.00 35 942.0
20260502152305 20 186 1.6 1.6 0.00 0.00 0.00 34 942.5
20260502152201 20 254 0.0 1.6 0.00 0.00 0.00 33 942.7
20260502152101 20 281 1.6 3.2 0.00 0.00 0.00 33 942.8
20260502152000 20 247 1.6 3.2 0.00 0.00 0.00 33 942.6
20260502151901 20 260 1.6 1.6 0.00 0.00 0.00 34 942.7
20260502151802 20 247 1.6 1.6 0.00 0.00 0.00 35 942.6
20260502151701 20 214 0.0 1.6 0.00 0.00 0.00 32 942.6
20260502151601 20 223 1.6 1.6 0.00 0.00 0.00 32 942.6
20260502151500 20 276 0.0 0.0 0.00 0.00 0.00 34 942.6
20260502151402 20 168 0.0 0.0 0.00 0.00 0.00 34 942.6
20260502151301 20 168 0.0 0.0 0.00 0.00 0.00 34 942.7
20260502151202 20 166 0.0 0.0 0.00 0.00 0.00 33 942.7
20260502151101 20 166 0.0 0.0 0.00 0.00 0.00 33 942.5
20260502151001 20 167 0.0 3.2 0.00 0.00 0.00 34 942.8
20260502150901 20 191 1.6 3.2 0.00 0.00 0.00 35 942.6
20260502150800 20 195 1.6 1.6 0.00 0.00 0.00 37 942.5
20260502150701 20 186 1.6 1.6 0.00 0.00 0.00 34 942.7
20260502150601 20 176 0.0 3.2 0.00 0.00 0.00 33 942.9
20260502150501 20 188 1.6 3.2 0.00 0.00 0.00 34 942.8
20260502150401 20 204 1.6 3.2 0.00 0.00 0.00 33 942.8
20260502150302 20 233 1.6 3.2 0.00 0.00 0.00 35 942.8
20260502150200 20 212 1.6 3.2 0.00 0.00 0.00 34 943.0
20260502130701 20 184 1.6 4.8 0.00 0.00 0.00 37 943.8
20260502130601 20 189 3.2 4.8 0.00 0.00 0.00 33 943.8
20260502130502 20 209 3.2 4.8 0.00 0.00 0.00 34 943.8
20260502130401 20 202 1.6 3.2 0.00 0.00 0.00 38 943.7
20260502130300 20 168 1.6 1.6 0.00 0.00 0.00 35 944.0
20260502130201 20 200 1.6 1.6 0.00 0.00 0.00 38 943.7
20260502123800 21 180 1.6 3.2 0.00 0.00 0.00 35 944.1
20260502123701 21 215 3.2 3.2 0.00 0.00 0.00 32 943.9
20260502123601 21 186 3.2 3.2 0.00 0.00 0.00 37 944.1
20260502123501 21 177 3.2 3.2 0.00 0.00 0.00 36 944.1
20260502123401 21 238 1.6 1.6 0.00 0.00 0.00 34 944.0
20260502123301 21 239 0.0 1.6 0.00 0.00 0.00 35 944.3
20260502123203 21 303 0.0 1.6 0.00 0.00 0.00 36 944.3
20260502123101 20 299 1.6 1.6 0.00 0.00 0.00 36 944.1
20260502123001 20 300 1.6 1.6 0.00 0.00 0.00 37 944.4
20260502122901 20 329 1.6 1.6 0.00 0.00 0.00 38 944.5
20260502122801 20 221 0.0 1.6 0.00 0.00 0.00 34 944.2
20260502122701 20 235 0.0 1.6 0.00 0.00 0.00 39 944.1
20260502122601 19 280 0.0 3.2 0.00 0.00 0.00 38 944.5
20260502122501 19 291 1.6 3.2 0.00 0.00 0.00 36 944.5
20260502122401 19 291 1.6 3.2 0.00 0.00 0.00 36 944.5
20260502122301 19 334 1.6 3.2 0.00 0.00 0.00 36 944.2
20260502122201 19 334 1.6 1.6 0.00 0.00 0.00 35 944.5
20260502122103 19 272 1.6 3.2 0.00 0.00 0.00 35 944.4
20260502122000 19 242 1.6 6.4 0.00 0.00 0.00 35 944.3
20260502121901 20 192 4.8 4.8 0.00 0.00 0.00 36 944.4
20260502121801 20 208 3.2 4.8 0.00 0.00 0.00 36 944.2
20260502121702 20 217 3.2 4.8 0.00 0.00 0.00 34 944.4
20260502121601 20 223 3.2 4.8 0.00 0.00 0.00 37 944.3
20260502121501 20 191 3.2 4.8 0.00 0.00 0.00 39 944.4
20260502121401 20 304 1.6 1.6 0.00 0.00 0.00 35 944.4
20260502121301 19 214 0.0 1.6 0.00 0.00 0.00 35 944.4
20260502121201 19 198 1.6 1.6 0.00 0.00 0.00 37 944.3
20260502121101 19 191 1.6 3.2 0.00 0.00 0.00 38 944.4
20260502121004 19 215 1.6 6.4 0.00 0.00 0.00 35 944.3
20260502120901 19 173 4.8 6.4 0.00 0.00 0.00 36 944.6
20260502120801 19 178 3.2 3.2 0.00 0.00 0.00 36 944.4
20260502120702 19 200 1.6 3.2 0.00 0.00 0.00 36 944.5
20260502120601 19 208 1.6 4.8 0.00 0.00 0.00 35 944.3
20260502120501 19 215 3.2 4.8 0.00 0.00 0.00 36 944.6
20260502120401 19 200 3.2 4.8 0.00 0.00 0.00 37 944.4
20260502120301 19 196 1.6 4.8 0.00 0.00 0.00 37 944.4
20260502120200 20 203 3.2 4.8 0.00 0.00 0.00 36 944.5
20260502115902 19 189 1.6 3.2 0.00 0.00 0.00 39 944.7
20260502115802 19 104 0.0 1.6 0.00 0.00 0.00 36 944.8
20260502115701 19 334 0.0 3.2 0.00 0.00 0.00 37 944.5
20260502115601 19 104 0.0 4.8 0.00 0.00 0.00 35 944.5
20260502115501 19 171 3.2 4.8 0.00 0.00 0.00 37 944.7
20260502115401 19 166 3.2 4.8 0.00 0.00 0.00 41 944.6
20260502115301 19 155 3.2 4.8 0.00 0.00 0.00 37 944.4
20260502115201 19 180 1.6 4.8 0.00 0.00 0.00 37 944.5
20260502115101 19 217 3.2 4.8 0.00 0.00 0.00 35 944.6
20260502115002 19 208 3.2 4.8 0.00 0.00 0.00 36 944.6
20260502114901 19 227 4.8 4.8 0.00 0.00 0.00 37 944.5
20260502114801 19 220 1.6 6.4 0.00 0.00 0.00 39 944.6
20260502114701 19 184 3.2 4.8 0.00 0.00 0.00 35 944.6
20260502114601 19 201 1.6 4.8 0.00 0.00 0.00 39 944.6
20260502114502 19 183 1.6 4.8 0.00 0.00 0.00 34 944.6
20260502114402 19 152 1.6 4.8 0.00 0.00 0.00 35 944.7
20260502114303 19 223 3.2 4.8 0.00 0.00 0.00 37 944.5
20260502114103 19 204 3.2 4.8 0.00 0.00 0.00 36 944.8
20260502114001 20 213 3.2 4.8 0.00 0.00 0.00 36 944.7
20260502113900 20 216 3.2 4.8 0.00 0.00 0.00 35 944.8
20260502113801 20 200 3.2 3.2 0.00 0.00 0.00 38 944.8
20260502113700 20 300 0.0 1.6 0.00 0.00 0.00 35 944.8
20260502113601 20 203 0.0 1.6 0.00 0.00 0.00 37 944.8
20260502113501 20 322 1.6 3.2 0.00 0.00 0.00 35 944.7
20260502113401 20 228 3.2 4.8 0.00 0.00 0.00 35 945.0
20260502113301 20 204 3.2 4.8 0.00 0.00 0.00 40 944.7
20260502113201 20 211 0.0 1.6 0.00 0.00 0.00 35 944.6
20260502113102 20 122 0.0 1.6 0.00 0.00 0.00 37 944.7
20260502113001 20 79 0.0 1.6 0.00 0.00 0.00 35 944.8
20260502112902 20 51 0.0 1.6 0.00 0.00 0.00 36 944.9
20260502112801 20 147 1.6 1.6 0.00 0.00 0.00 38 944.8
20260502112701 19 193 1.6 1.6 0.00 0.00 0.00 40 945.0
20260502112601 19 241 1.6 1.6 0.00 0.00 0.00 38 945.0
20260502112502 19 283 0.0 1.6 0.00 0.00 0.00 40 944.9
20260502112401 19 195 1.6 3.2 0.00 0.00 0.00 37 944.9
20260502112301 19 169 0.0 4.8 0.00 0.00 0.00 37 945.0
20260502112201 19 169 0.0 4.8 0.00 0.00 0.00 37 945.0
20260502112101 19 58 3.2 4.8 0.00 0.00 0.00 37 944.9
20260502112001 19 227 1.6 3.2 0.00 0.00 0.00 37 944.9
20260502111901 19 159 1.6 3.2 0.00 0.00 0.00 37 944.8
20260502111801 19 179 1.6 3.2 0.00 0.00 0.00 36 944.8
20260502111701 19 127 1.6 3.2 0.00 0.00 0.00 36 945.0
20260502111601 19 206 3.2 3.2 0.00 0.00 0.00 37 945.0
20260502111500 19 216 1.6 3.2 0.00 0.00 0.00 36 944.8
20260502111401 19 69 0.0 1.6 0.00 0.00 0.00 35 945.0
20260502111301 19 49 1.6 3.2 0.00 0.00 0.00 35 944.9
20260502111201 19 347 1.6 4.8 0.00 0.00 0.00 35 944.9
20260502111101 18 341 3.2 4.8 0.00 0.00 0.00 35 945.3
20260502111002 18 337 1.6 3.2 0.00 0.00 0.00 37 945.1
20260502110901 18 201 1.6 3.2 0.00 0.00 0.00 36 945.2
20260502110801 18 193 1.6 1.6 0.00 0.00 0.00 37 945.3
20260502110701 18 165 1.6 1.6 0.00 0.00 0.00 39 945.1
20260502110601 18 219 1.6 3.2 0.00 0.00 0.00 37 945.0
20260502110501 18 209 1.6 3.2 0.00 0.00 0.00 38 945.1
20260502110401 18 194 3.2 4.8 0.00 0.00 0.00 38 945.0
20260502110301 18 214 3.2 4.8 0.00 0.00 0.00 38 945.2
20260502110203 18 185 3.2 4.8 0.00 0.00 0.00 38 945.3
20260502110101 18 200 1.6 3.2 0.00 0.00 0.00 36 945.2
20260502110001 18 261 1.6 1.6 0.00 0.00 0.00 38 945.3
20260502105901 18 270 0.0 1.6 0.00 0.00 0.00 40 945.1
20260502105801 18 107 0.0 1.6 0.00 0.00 0.00 37 945.2
20260502105701 18 229 1.6 3.2 0.00 0.00 0.00 37 945.2
20260502105601 18 224 1.6 4.8 0.00 0.00 0.00 36 945.4
20260502105501 18 188 3.2 4.8 0.00 0.00 0.00 36 945.3
20260502105400 18 201 3.2 4.8 0.00 0.00 0.00 41 945.1
20260502105301 18 218 1.6 3.2 0.00 0.00 0.00 37 945.4
20260502105201 18 282 3.2 4.8 0.00 0.00 0.00 36 945.1
20260502105101 18 244 1.6 4.8 0.00 0.00 0.00 37 945.2
20260502105001 18 219 3.2 4.8 0.00 0.00 0.00 43 945.4
20260502104900 18 223 3.2 4.8 0.00 0.00 0.00 37 945.3
20260502104801 19 194 3.2 4.8 0.00 0.00 0.00 37 945.2
20260502104700 19 188 4.8 4.8 0.00 0.00 0.00 36 945.3
20260502104601 19 222 3.2 3.2 0.00 0.00 0.00 36 945.3
20260502104501 19 212 3.2 3.2 0.00 0.00 0.00 40 945.2
20260502104401 19 88 1.6 1.6 0.00 0.00 0.00 37 945.3
20260502104301 19 84 1.6 8.0 0.00 0.00 0.00 35 945.3
20260502104201 19 203 4.8 8.0 0.00 0.00 0.00 39 945.3
20260502104101 19 55 0.0 3.2 0.00 0.00 0.00 36 945.3
20260502103901 19 96 1.6 1.6 0.00 0.00 0.00 35 945.3
20260502103803 18 134 1.6 1.6 0.00 0.00 0.00 36 945.4
20260502103701 18 89 0.0 0.0 0.00 0.00 0.00 35 945.5
20260502103600 18 66 0.0 3.2 0.00 0.00 0.00 37 945.4
20260502103502 18 170 0.0 3.2 0.00 0.00 0.00 38 945.5
20260502103401 18 128 1.6 3.2 0.00 0.00 0.00 35 945.4
20260502103301 18 89 0.0 1.6 0.00 0.00 0.00 36 945.4
20260502103201 18 128 0.0 1.6 0.00 0.00 0.00 37 945.4
20260502103101 18 87 0.0 1.6 0.00 0.00 0.00 38 945.4
20260502103001 18 53 1.6 1.6 0.00 0.00 0.00 36 945.5
20260502102901 18 105 0.0 3.2 0.00 0.00 0.00 38 945.3
20260502102801 18 106 1.6 3.2 0.00 0.00 0.00 36 945.5
20260502102701 17 149 1.6 1.6 0.00 0.00 0.00 38 945.5
20260502102600 17 151 1.6 1.6 0.00 0.00 0.00 41 945.5
20260502102501 17 182 1.6 3.2 0.00 0.00 0.00 38 945.5
20260502102401 17 192 1.6 3.2 0.00 0.00 0.00 38 945.5
20260502102301 17 180 3.2 3.2 0.00 0.00 0.00 40 945.5
20260502102203 17 180 3.2 3.2 0.00 0.00 0.00 40 945.5
20260502102101 17 202 1.6 4.8 0.00 0.00 0.00 37 945.5
20260502102001 18 140 3.2 4.8 0.00 0.00 0.00 37 945.6
20260502101901 18 139 3.2 4.8 0.00 0.00 0.00 38 945.8
20260502101801 18 166 3.2 4.8 0.00 0.00 0.00 36 945.5
20260502101701 18 176 3.2 4.8 0.00 0.00 0.00 37 945.6
20260502101601 18 164 3.2 4.8 0.00 0.00 0.00 38 945.5
20260502101501 18 207 3.2 4.8 0.00 0.00 0.00 41 945.6
20260502101401 18 196 3.2 4.8 0.00 0.00 0.00 38 945.5
20260502101306 18 125 1.6 3.2 0.00 0.00 0.00 39 945.5
20260502101201 18 195 1.6 3.2 0.00 0.00 0.00 40 945.6
20260502101100 17 154 3.2 3.2 0.00 0.00 0.00 40 945.5
20260502101000 17 185 1.6 4.8 0.00 0.00 0.00 39 945.7
20260502100901 17 184 4.8 4.8 0.00 0.00 0.00 44 945.6
20260502100801 17 218 1.6 3.2 0.00 0.00 0.00 40 945.7
20260502100701 17 226 3.2 4.8 0.00 0.00 0.00 38 945.6
20260502100601 18 217 3.2 4.8 0.00 0.00 0.00 37 945.8
20260502100501 18 190 4.8 4.8 0.00 0.00 0.00 39 945.5
20260502100402 18 190 1.6 3.2 0.00 0.00 0.00 39 945.5
20260502100301 18 218 0.0 1.6 0.00 0.00 0.00 42 945.8
20260502100201 18 188 1.6 3.2 0.00 0.00 0.00 37 945.6
20260502091501 17 124 0.0 1.6 0.00 0.00 0.00 40 946.1
20260502091402 17 144 1.6 3.2 0.00 0.00 0.00 41 946.2
20260502091301 17 139 0.0 3.2 0.00 0.00 0.00 40 946.1
20260502091201 17 184 1.6 3.2 0.00 0.00 0.00 39 946.0
20260502091101 17 160 1.6 3.2 0.00 0.00 0.00 44 946.0
20260502091001 17 126 1.6 4.8 0.00 0.00 0.00 41 946.1
20260502090901 17 131 3.2 4.8 0.00 0.00 0.00 39 946.1
20260502090802 17 136 3.2 4.8 0.00 0.00 0.00 37 946.2
20260502090701 17 119 1.6 3.2 0.00 0.00 0.00 43 945.9
20260502090601 17 95 1.6 1.6 0.00 0.00 0.00 37 946.1
20260502090501 17 69 0.0 1.6 0.00 0.00 0.00 38 946.1
20260502090401 17 107 1.6 3.2 0.00 0.00 0.00 37 946.1
20260502090301 17 125 1.6 3.2 0.00 0.00 0.00 40 946.2
20260502090201 17 215 0.0 3.2 0.00 0.00 0.00 39 946.2
20260502071501 15 222 1.6 1.6 0.00 0.00 0.00 45 946.3
20260502071401 15 237 0.0 3.2 0.00 0.00 0.00 44 946.5
20260502071301 15 229 1.6 3.2 0.00 0.00 0.00 45 946.5
20260502071201 15 197 1.6 3.2 0.00 0.00 0.00 44 946.2
20260502071101 15 164 1.6 3.2 0.00 0.00 0.00 45 946.6
20260502071001 15 189 1.6 3.2 0.00 0.00 0.00 47 946.7
20260502070900 15 220 1.6 1.6 0.00 0.00 0.00 46 946.6
20260502070801 15 212 0.0 3.2 0.00 0.00 0.00 44 946.5
20260502070701 15 218 1.6 3.2 0.00 0.00 0.00 44 946.6
20260502070601 15 188 1.6 3.2 0.00 0.00 0.00 44 946.4
20260502070501 15 177 3.2 3.2 0.00 0.00 0.00 46 946.3
20260502070400 15 177 3.2 3.2 0.00 0.00 0.00 45 946.7
20260502070302 15 160 1.6 3.2 0.00 0.00 0.00 44 946.4
20260502070201 15 177 3.2 3.2 0.00 0.00 0.00 45 946.6
20260502070101 15 194 1.6 3.2 0.00 0.00 0.00 47 946.5
20260502070001 15 166 1.6 3.2 0.00 0.00 0.00 45 946.6
20260502065901 15 171 1.6 3.2 0.00 0.00 0.00 47 946.7
20260502065800 15 210 1.6 3.2 0.00 0.00 0.00 47 946.3
20260502065701 15 215 1.6 3.2 0.00 0.00 0.00 45 946.5
20260502065601 15 200 1.6 3.2 0.00 0.00 0.00 47 946.3
20260502065501 15 143 1.6 3.2 0.00 0.00 0.00 46 946.5
20260502065401 15 164 1.6 3.2 0.00 0.00 0.00 50 946.3
20260502065301 15 229 1.6 1.6 0.00 0.00 0.00 47 946.5
20260502065201 15 182 1.6 1.6 0.00 0.00 0.00 48 946.3
20260502065101 15 180 1.6 1.6 0.00 0.00 0.00 46 946.7
20260502065001 15 206 1.6 1.6 0.00 0.00 0.00 45 946.4
20260502064901 15 201 1.6 1.6 0.00 0.00 0.00 47 946.5
20260502064801 15 159 1.6 1.6 0.00 0.00 0.00 48 946.5
20260502064700 15 130 1.6 1.6 0.00 0.00 0.00 48 946.6
20260502064602 15 139 1.6 1.6 0.00 0.00 0.00 47 946.4
20260502064501 15 98 1.6 1.6 0.00 0.00 0.00 47 946.5
20260502064401 15 132 1.6 3.2 0.00 0.00 0.00 44 946.4
20260502064302 15 142 1.6 3.2 0.00 0.00 0.00 45 946.5
20260502064201 15 127 3.2 3.2 0.00 0.00 0.00 47 946.5
20260502064101 15 114 1.6 1.6 0.00 0.00 0.00 46 946.4
20260502064001 15 126 1.6 1.6 0.00 0.00 0.00 46 946.4
20260502063901 15 103 0.0 3.2 0.00 0.00 0.00 46 946.5
20260502063801 15 112 1.6 3.2 0.00 0.00 0.00 46 946.6
20260502063701 15 106 1.6 3.2 0.00 0.00 0.00 45 946.3
20260502063601 15 118 1.6 3.2 0.00 0.00 0.00 46 946.5
20260502063501 15 125 1.6 3.2 0.00 0.00 0.00 47 946.5
20260502063401 15 122 1.6 3.2 0.00 0.00 0.00 46 946.6
20260502063301 15 134 1.6 3.2 0.00 0.00 0.00 46 946.4
20260502063206 15 141 1.6 1.6 0.00 0.00 0.00 49 946.4
20260502063101 15 84 1.6 1.6 0.00 0.00 0.00 47 946.3
20260502063001 15 119 1.6 1.6 0.00 0.00 0.00 47 946.4
20260502062901 15 116 1.6 1.6 0.00 0.00 0.00 47 946.5
20260502062801 15 133 1.6 3.2 0.00 0.00 0.00 46 946.5
20260502062701 15 115 1.6 3.2 0.00 0.00 0.00 45 946.3
20260502062601 15 122 1.6 1.6 0.00 0.00 0.00 46 946.5
20260502062501 15 114 1.6 3.2 0.00 0.00 0.00 47 946.6
20260502062401 15 116 1.6 3.2 0.00 0.00 0.00 46 946.4
20260502062300 15 113 1.6 1.6 0.00 0.00 0.00 48 946.4
20260502062202 15 85 1.6 3.2 0.00 0.00 0.00 45 946.5
20260502062101 15 86 1.6 3.2 0.00 0.00 0.00 47 946.3
20260502062001 15 119 1.6 1.6 0.00 0.00 0.00 47 946.7
20260502061901 15 100 0.0 1.6 0.00 0.00 0.00 50 946.5
20260502061801 15 100 0.0 1.6 0.00 0.00 0.00 50 946.5
20260502061702 15 116 1.6 1.6 0.00 0.00 0.00 47 946.5
20260502061601 15 135 1.6 1.6 0.00 0.00 0.00 49 946.6
20260502061501 14 103 0.0 1.6 0.00 0.00 0.00 48 946.4
20260502061401 14 111 1.6 1.6 0.00 0.00 0.00 51 946.4
20260502061301 15 132 1.6 1.6 0.00 0.00 0.00 49 946.5
20260502061201 15 113 1.6 1.6 0.00 0.00 0.00 47 946.4
20260502061100 15 122 1.6 1.6 0.00 0.00 0.00 48 946.4
20260502061001 15 142 1.6 1.6 0.00 0.00 0.00 47 946.5
20260502060901 15 131 1.6 1.6 0.00 0.00 0.00 49 946.4
20260502060801 15 120 1.6 1.6 0.00 0.00 0.00 48 946.6
20260502060701 15 128 1.6 1.6 0.00 0.00 0.00 47 946.5
20260502060601 15 138 1.6 1.6 0.00 0.00 0.00 49 946.4
20260502060501 15 139 0.0 1.6 0.00 0.00 0.00 48 946.3
20260502060401 15 97 0.0 1.6 0.00 0.00 0.00 47 946.5
20260502060301 15 119 0.0 1.6 0.00 0.00 0.00 47 946.4
20260502060201 15 154 1.6 1.6 0.00 0.00 0.00 49 946.4
20260502060100 15 140 1.6 1.6 0.00 0.00 0.00 47 946.3
20260502060001 15 144 1.6 1.6 0.00 0.00 0.00 47 946.5
20260502055901 15 130 1.6 1.6 0.00 0.00 0.00 47 946.4
20260502055801 15 117 1.6 1.6 0.00 0.00 0.00 47 946.4
20260502055701 15 118 0.0 1.6 0.00 0.00 0.00 45 946.4
20260502055601 15 143 1.6 1.6 0.00 0.00 0.00 46 946.5
20260502055501 15 94 0.0 1.6 0.00 0.00 0.00 46 946.6
20260502055401 15 99 0.0 1.6 0.00 0.00 0.00 45 946.4
20260502055301 15 85 1.6 1.6 0.00 0.00 0.00 45 946.4
20260502055201 15 85 0.0 1.6 0.00 0.00 0.00 48 946.4
20260502055101 15 143 1.6 1.6 0.00 0.00 0.00 46 946.5
20260502055001 15 111 0.0 0.0 0.00 0.00 0.00 46 946.4
20260502054901 15 105 0.0 0.0 0.00 0.00 0.00 47 946.4
20260502054800 15 121 0.0 0.0 0.00 0.00 0.00 48 946.5
20260502054701 15 94 0.0 0.0 0.00 0.00 0.00 46 946.4
20260502054601 16 134 0.0 1.6 0.00 0.00 0.00 44 946.5
20260502054501 16 129 0.0 1.6 0.00 0.00 0.00 45 946.5
20260502054401 16 106 0.0 1.6 0.00 0.00 0.00 43 946.4
20260502054301 16 106 0.0 1.6 0.00 0.00 0.00 42 946.7
20260502054202 16 102 0.0 1.6 0.00 0.00 0.00 42 946.4
20260502054100 16 100 0.0 0.0 0.00 0.00 0.00 42 946.4
20260502054001 16 114 0.0 0.0 0.00 0.00 0.00 43 946.4
20260502053901 16 205 0.0 0.0 0.00 0.00 0.00 44 946.4
20260502053800 16 205 0.0 0.0 0.00 0.00 0.00 44 946.6
20260502053700 16 205 0.0 0.0 0.00 0.00 0.00 44 946.4
20260502053601 16 205 0.0 0.0 0.00 0.00 0.00 45 946.4
20260502053500 15 205 0.0 0.0 0.00 0.00 0.00 46 946.5
20260502053400 15 205 0.0 0.0 0.00 0.00 0.00 46 946.3
20260502053301 15 205 0.0 0.0 0.00 0.00 0.00 45 946.2
20260502053201 15 205 0.0 0.0 0.00 0.00 0.00 46 946.4
20260502053101 15 205 0.0 0.0 0.00 0.00 0.00 46 946.2
20260502053002 15 205 0.0 0.0 0.00 0.00 0.00 45 946.5
20260502052901 15 205 0.0 0.0 0.00 0.00 0.00 46 946.4
20260502052802 15 205 0.0 0.0 0.00 0.00 0.00 45 946.4
20260502052701 14 205 0.0 0.0 0.00 0.00 0.00 46 946.4
20260502052601 14 205 0.0 0.0 0.00 0.00 0.00 46 946.5
20260502052501 14 205 0.0 0.0 0.00 0.00 0.00 46 946.5
20260502052401 14 205 0.0 0.0 0.00 0.00 0.00 47 946.4
20260502052301 14 206 0.0 0.0 0.00 0.00 0.00 49 946.5
20260502052200 14 206 0.0 0.0 0.00 0.00 0.00 48 946.5
20260502052101 14 206 0.0 0.0 0.00 0.00 0.00 50 946.3
20260502052001 14 206 0.0 0.0 0.00 0.00 0.00 49 946.5
20260502051901 14 206 0.0 0.0 0.00 0.00 0.00 48 946.3
20260502051801 14 206 0.0 0.0 0.00 0.00 0.00 49 946.4
20260502051702 14 206 0.0 0.0 0.00 0.00 0.00 49 946.4
20260502051601 14 206 0.0 0.0 0.00 0.00 0.00 50 946.3
20260502051501 14 206 0.0 0.0 0.00 0.00 0.00 50 946.4
20260502051401 13 206 0.0 0.0 0.00 0.00 0.00 47 946.4
20260502051301 13 206 0.0 0.0 0.00 0.00 0.00 47 946.2
20260502051201 13 206 0.0 0.0 0.00 0.00 0.00 48 946.3
20260502051100 13 206 0.0 0.0 0.00 0.00 0.00 50 946.4
20260502051002 13 206 0.0 0.0 0.00 0.00 0.00 48 946.6
20260502050902 13 206 0.0 0.0 0.00 0.00 0.00 51 946.5
20260502050801 13 206 0.0 0.0 0.00 0.00 0.00 48 946.3
20260502050700 13 205 0.0 1.6 0.00 0.00 0.00 48 946.2
20260502050601 13 205 0.0 1.6 0.00 0.00 0.00 48 946.4
20260502050500 13 205 0.0 1.6 0.00 0.00 0.00 49 946.5
20260502050406 13 206 0.0 1.6 0.00 0.00 0.00 49 946.4
20260502050302 13 206 0.0 1.6 0.00 0.00 0.00 49 946.2
20260502050201 13 206 0.0 1.6 0.00 0.00 0.00 51 946.3
20260502050101 13 206 1.6 1.6 0.00 0.00 0.00 50 946.4
20260502050001 13 206 0.0 1.6 0.00 0.00 0.00 50 946.3
20260502045903 13 206 0.0 0.0 0.00 0.00 0.00 52 946.3
20260502045801 13 206 0.0 0.0 0.00 0.00 0.00 52 946.4
20260502045705 13 207 0.0 1.6 0.00 0.00 0.00 47 946.2
20260502045601 13 207 0.0 1.6 0.00 0.00 0.00 46 946.4
20260502045500 13 212 1.6 1.6 0.00 0.00 0.00 46 946.2
20260502045401 13 89 0.0 1.6 0.00 0.00 0.00 48 946.2
20260502045301 13 88 0.0 0.0 0.00 0.00 0.00 47 946.2
20260502045201 13 89 0.0 0.0 0.00 0.00 0.00 46 946.3
20260502045101 13 89 0.0 0.0 0.00 0.00 0.00 46 946.4
20260502045000 13 89 0.0 0.0 0.00 0.00 0.00 46 946.2
20260502044900 13 88 0.0 0.0 0.00 0.00 0.00 46 946.3
20260502044805 13 89 0.0 0.0 0.00 0.00 0.00 46 946.4
20260502044702 13 89 0.0 0.0 0.00 0.00 0.00 46 946.3
20260502044600 13 88 0.0 0.0 0.00 0.00 0.00 46 946.3
20260502044501 13 88 0.0 0.0 0.00 0.00 0.00 45 946.3
20260502044403 13 88 0.0 0.0 0.00 0.00 0.00 45 946.4
20260502044300 13 88 0.0 0.0 0.00 0.00 0.00 45 946.2
20260502044201 13 88 0.0 0.0 0.00 0.00 0.00 45 946.4
20260502044101 13 88 0.0 0.0 0.00 0.00 0.00 45 946.3
20260502044001 13 88 0.0 0.0 0.00 0.00 0.00 45 946.3
20260502043901 13 88 0.0 0.0 0.00 0.00 0.00 45 946.2
20260502043801 13 88 0.0 0.0 0.00 0.00 0.00 45 946.0
20260502043702 13 88 0.0 0.0 0.00 0.00 0.00 45 946.3
20260502043601 13 88 0.0 0.0 0.00 0.00 0.00 45 946.3
20260502043500 13 88 0.0 0.0 0.00 0.00 0.00 46 946.3
20260502043401 13 88 0.0 0.0 0.00 0.00 0.00 46 946.3
20260502043301 13 88 0.0 0.0 0.00 0.00 0.00 46 946.1
20260502043205 13 88 0.0 0.0 0.00 0.00 0.00 46 946.3
20260502043100 13 88 0.0 0.0 0.00 0.00 0.00 46 946.3
20260502043004 13 88 0.0 0.0 0.00 0.00 0.00 47 946.3
20260502042901 13 88 0.0 0.0 0.00 0.00 0.00 47 946.2
20260502042801 12 88 0.0 0.0 0.00 0.00 0.00 47 946.2
20260502042701 12 88 0.0 0.0 0.00 0.00 0.00 47 946.3
20260502042601 12 88 0.0 0.0 0.00 0.00 0.00 47 946.4
20260502042501 12 88 0.0 0.0 0.00 0.00 0.00 47 946.3
20260502042401 12 88 0.0 0.0 0.00 0.00 0.00 47 946.4
20260502042300 12 89 0.0 0.0 0.00 0.00 0.00 47 946.2
20260502042201 12 88 0.0 0.0 0.00 0.00 0.00 47 946.2
20260502042101 12 88 0.0 0.0 0.00 0.00 0.00 47 946.3
20260502042000 12 88 0.0 0.0 0.00 0.00 0.00 47 946.2
20260502041900 12 88 0.0 0.0 0.00 0.00 0.00 47 946.2
20260502041801 12 88 0.0 0.0 0.00 0.00 0.00 47 946.0
20260502041701 12 88 0.0 0.0 0.00 0.00 0.00 47 946.3
20260502041601 12 88 0.0 0.0 0.00 0.00 0.00 47 946.3
20260502041502 12 88 0.0 0.0 0.00 0.00 0.00 47 946.1
20260502041401 12 88 0.0 0.0 0.00 0.00 0.00 47 946.3
20260502041301 12 88 0.0 1.6 0.00 0.00 0.00 47 946.1
20260502041201 12 88 0.0 1.6 0.00 0.00 0.00 48 946.1
20260502041101 12 88 0.0 1.6 0.00 0.00 0.00 48 946.0
20260502041001 12 88 0.0 1.6 0.00 0.00 0.00 48 946.2
20260502040901 12 88 0.0 1.6 0.00 0.00 0.00 47 946.2
20260502040801 12 88 0.0 1.6 0.00 0.00 0.00 47 946.4
20260502040701 12 88 0.0 0.0 0.00 0.00 0.00 47 946.2
20260502040600 12 88 0.0 0.0 0.00 0.00 0.00 47 946.1
20260502040500 12 88 0.0 0.0 0.00 0.00 0.00 47 946.2
20260502040401 12 88 0.0 0.0 0.00 0.00 0.00 47 946.2
20260502040302 12 88 0.0 0.0 0.00 0.00 0.00 47 946.3
20260502040201 12 88 0.0 0.0 0.00 0.00 0.00 47 946.2
20260502040100 12 88 0.0 0.0 0.00 0.00 0.00 47 946.1
20260502040001 12 88 0.0 0.0 0.00 0.00 0.00 48 946.0
20260502035901 12 88 0.0 0.0 0.00 0.00 0.00 48 946.1
20260502035800 12 87 0.0 0.0 0.00 0.00 0.00 48 946.2
20260502035701 12 87 0.0 0.0 0.00 0.00 0.00 48 946.1
20260502035602 12 88 0.0 0.0 0.00 0.00 0.00 48 946.2
20260502035500 12 88 0.0 0.0 0.00 0.00 0.00 49 946.0
20260502035401 12 88 0.0 0.0 0.00 0.00 0.00 49 946.1
20260502035301 12 88 0.0 0.0 0.00 0.00 0.00 49 946.3
20260502035201 12 88 0.0 0.0 0.00 0.00 0.00 49 946.0
20260502035102 11 88 0.0 0.0 0.00 0.00 0.00 50 946.0
20260502035000 11 88 0.0 0.0 0.00 0.00 0.00 50 946.0
20260502034900 11 88 0.0 0.0 0.00 0.00 0.00 50 946.2
20260502034801 11 88 0.0 0.0 0.00 0.00 0.00 51 946.3
20260502034700 11 88 0.0 0.0 0.00 0.00 0.00 51 946.1
20260502034600 11 88 0.0 0.0 0.00 0.00 0.00 51 946.2
20260502034501 11 88 0.0 0.0 0.00 0.00 0.00 51 946.2
20260502034400 11 88 0.0 0.0 0.00 0.00 0.00 51 946.0
20260502034301 11 88 0.0 0.0 0.00 0.00 0.00 52 946.1
20260502034201 11 88 0.0 0.0 0.00 0.00 0.00 52 946.1
20260502034101 11 88 0.0 0.0 0.00 0.00 0.00 52 946.2
20260502034001 11 88 0.0 0.0 0.00 0.00 0.00 52 946.0
20260502033901 11 88 0.0 0.0 0.00 0.00 0.00 52 946.3
20260502033801 11 88 0.0 0.0 0.00 0.00 0.00 52 945.9
20260502033702 11 88 0.0 0.0 0.00 0.00 0.00 53 946.1
20260502033601 11 88 0.0 0.0 0.00 0.00 0.00 53 946.0
20260502033501 11 88 0.0 0.0 0.00 0.00 0.00 52 946.2
20260502033401 11 88 0.0 0.0 0.00 0.00 0.00 52 946.2
20260502033301 11 88 0.0 0.0 0.00 0.00 0.00 52 946.0
20260502033201 11 88 0.0 0.0 0.00 0.00 0.00 52 946.2
20260502033101 11 88 0.0 0.0 0.00 0.00 0.00 52 946.1
20260502033001 11 88 0.0 0.0 0.00 0.00 0.00 52 946.1
20260502032902 11 88 0.0 0.0 0.00 0.00 0.00 51 946.3
20260502032802 11 88 0.0 0.0 0.00 0.00 0.00 51 946.3
20260502032701 11 88 0.0 0.0 0.00 0.00 0.00 51 946.2
20260502032601 11 88 0.0 0.0 0.00 0.00 0.00 51 946.2
20260502032501 11 88 0.0 0.0 0.00 0.00 0.00 51 946.2
20260502032401 11 88 0.0 0.0 0.00 0.00 0.00 51 946.2
20260502032301 11 88 0.0 0.0 0.00 0.00 0.00 51 946.3
20260502032201 11 88 0.0 0.0 0.00 0.00 0.00 51 946.1
20260502032100 11 88 0.0 0.0 0.00 0.00 0.00 50 946.2
20260502032001 11 88 0.0 0.0 0.00 0.00 0.00 50 946.2
20260502031901 11 88 0.0 0.0 0.00 0.00 0.00 50 946.2
20260502031801 12 88 0.0 0.0 0.00 0.00 0.00 50 946.1
20260502031701 12 88 0.0 0.0 0.00 0.00 0.00 50 946.2
20260502031602 12 88 0.0 0.0 0.00 0.00 0.00 50 946.2
20260502031501 12 88 0.0 0.0 0.00 0.00 0.00 50 946.3
20260502031401 11 88 0.0 0.0 0.00 0.00 0.00 50 946.1
20260502031301 11 88 0.0 0.0 0.00 0.00 0.00 50 946.2
20260502031206 11 88 0.0 0.0 0.00 0.00 0.00 50 946.0
20260502031101 12 88 0.0 0.0 0.00 0.00 0.00 50 946.1
20260502031001 12 88 0.0 0.0 0.00 0.00 0.00 50 946.2
20260502030902 12 88 0.0 0.0 0.00 0.00 0.00 50 946.2
20260502030801 12 88 0.0 0.0 0.00 0.00 0.00 49 946.4
20260502030701 12 88 0.0 0.0 0.00 0.00 0.00 49 946.0
20260502030601 12 88 0.0 0.0 0.00 0.00 0.00 49 946.2
20260502030502 12 88 0.0 0.0 0.00 0.00 0.00 48 946.1
20260502030400 12 88 0.0 0.0 0.00 0.00 0.00 48 946.1
20260502030301 12 88 0.0 0.0 0.00 0.00 0.00 47 946.1
20260502030201 12 88 0.0 0.0 0.00 0.00 0.00 47 946.2
20260502030000 12 88 0.0 0.0 0.00 0.00 0.00 47 946.3
20260502025901 12 88 0.0 0.0 0.00 0.00 0.00 47 946.2
20260502025801 12 88 0.0 0.0 0.00 0.00 0.00 48 946.2
20260502025700 12 88 0.0 0.0 0.00 0.00 0.00 48 946.1
20260502025601 12 88 0.0 0.0 0.00 0.00 0.00 48 946.1
20260502025501 12 88 0.0 0.0 0.00 0.00 0.00 48 946.1
20260502025401 12 88 0.0 0.0 0.00 0.00 0.00 48 946.1
20260502025301 12 88 0.0 0.0 0.00 0.00 0.00 48 946.1
20260502025202 12 88 0.0 0.0 0.00 0.00 0.00 47 946.2
20260502025101 12 88 0.0 0.0 0.00 0.00 0.00 48 946.4
20260502025001 12 88 0.0 0.0 0.00 0.00 0.00 48 946.3
20260502024901 12 88 0.0 0.0 0.00 0.00 0.00 47 946.4
20260502024801 12 88 0.0 0.0 0.00 0.00 0.00 48 946.3
20260502024701 12 88 0.0 0.0 0.00 0.00 0.00 48 946.3
20260502024601 12 88 0.0 0.0 0.00 0.00 0.00 48 946.5
20260502024501 12 88 0.0 1.6 0.00 0.00 0.00 48 946.3
20260502024401 12 89 0.0 1.6 0.00 0.00 0.00 48 946.2
20260502024301 12 88 0.0 1.6 0.00 0.00 0.00 47 946.3
20260502024201 12 88 0.0 1.6 0.00 0.00 0.00 47 946.0
20260502024101 12 89 0.0 1.6 0.00 0.00 0.00 47 946.2
20260502024001 12 88 0.0 1.6 0.00 0.00 0.00 47 946.3
20260502023901 12 88 1.6 1.6 0.00 0.00 0.00 47 946.3
20260502023802 12 88 1.6 1.6 0.00 0.00 0.00 47 946.4
20260502023701 12 89 0.0 1.6 0.00 0.00 0.00 48 946.3
20260502023601 12 88 0.0 1.6 0.00 0.00 0.00 48 946.2
20260502023501 12 88 1.6 1.6 0.00 0.00 0.00 48 946.4
20260502023401 12 88 1.6 1.6 0.00 0.00 0.00 48 946.2
20260502023302 12 88 1.6 1.6 0.00 0.00 0.00 48 946.3
20260502023201 12 88 1.6 1.6 0.00 0.00 0.00 48 946.4
20260502023100 12 88 1.6 1.6 0.00 0.00 0.00 48 946.3
20260502023001 12 89 1.6 1.6 0.00 0.00 0.00 48 946.3
20260502022901 12 88 1.6 1.6 0.00 0.00 0.00 48 946.2
20260502022801 12 88 1.6 1.6 0.00 0.00 0.00 48 946.3
20260502022701 12 88 0.0 1.6 0.00 0.00 0.00 48 946.4
20260502022602 12 88 0.0 1.6 0.00 0.00 0.00 48 946.3
20260502022501 12 88 0.0 0.0 0.00 0.00 0.00 49 946.4
20260502022400 12 88 0.0 0.0 0.00 0.00 0.00 49 946.4
20260502022301 12 88 0.0 0.0 0.00 0.00 0.00 49 946.4
20260502022201 12 88 0.0 0.0 0.00 0.00 0.00 48 946.4
20260502022101 12 88 0.0 0.0 0.00 0.00 0.00 48 946.5
20260502022001 12 88 0.0 0.0 0.00 0.00 0.00 48 946.4
20260502021901 12 88 0.0 0.0 0.00 0.00 0.00 48 946.4
20260502021801 12 88 0.0 0.0 0.00 0.00 0.00 48 946.4
20260502021701 12 88 0.0 0.0 0.00 0.00 0.00 48 946.5
20260502021602 12 88 0.0 0.0 0.00 0.00 0.00 48 946.3
20260502021502 12 88 0.0 0.0 0.00 0.00 0.00 48 946.3
20260502021401 12 88 0.0 0.0 0.00 0.00 0.00 48 946.2
20260502021301 12 88 0.0 0.0 0.00 0.00 0.00 48 946.3
20260502021201 12 88 0.0 0.0 0.00 0.00 0.00 48 946.3
20260502021101 12 88 0.0 0.0 0.00 0.00 0.00 48 946.4
20260502021000 12 88 0.0 0.0 0.00 0.00 0.00 48 946.5
20260502020901 12 88 0.0 0.0 0.00 0.00 0.00 48 946.2
20260502020801 12 88 0.0 0.0 0.00 0.00 0.00 48 946.2
20260502020701 12 88 0.0 0.0 0.00 0.00 0.00 48 946.4
20260502020600 12 88 0.0 0.0 0.00 0.00 0.00 48 946.4
20260502020505 12 88 0.0 0.0 0.00 0.00 0.00 48 946.2
20260502020401 12 88 0.0 0.0 0.00 0.00 0.00 48 946.4
20260502020301 12 88 0.0 0.0 0.00 0.00 0.00 48 946.3
20260502020201 12 88 0.0 0.0 0.00 0.00 0.00 48 946.4
20260502020002 12 88 0.0 1.6 0.00 0.00 0.00 48 946.6
20260502015902 12 88 0.0 1.6 0.00 0.00 0.00 48 946.3
20260502015802 12 88 0.0 1.6 0.00 0.00 0.00 47 946.3
20260502015701 12 88 0.0 1.6 0.00 0.00 0.00 47 946.4
20260502015601 12 88 0.0 1.6 0.00 0.00 0.00 47 946.4
20260502015501 12 88 0.0 1.6 0.00 0.00 0.00 47 946.6
20260502015401 12 88 0.0 1.6 0.00 0.00 0.00 47 946.4
20260502015301 12 88 0.0 1.6 0.00 0.00 0.00 47 946.5
20260502015201 12 88 0.0 1.6 0.00 0.00 0.00 47 946.3
20260502015101 12 88 0.0 1.6 0.00 0.00 0.00 47 946.4
20260502015002 12 88 0.0 1.6 0.00 0.00 0.00 47 946.6
20260502014901 12 88 0.0 1.6 0.00 0.00 0.00 47 946.5
20260502014801 12 88 0.0 1.6 0.00 0.00 0.00 47 946.4
20260502014701 12 88 0.0 1.6 0.00 0.00 0.00 47 946.5
20260502014602 12 88 0.0 1.6 0.00 0.00 0.00 47 946.6
20260502014501 12 88 0.0 1.6 0.00 0.00 0.00 47 946.5
20260502014400 12 88 1.6 1.6 0.00 0.00 0.00 47 946.4
20260502014302 12 88 0.0 1.6 0.00 0.00 0.00 47 946.5
20260502014201 12 88 0.0 1.6 0.00 0.00 0.00 47 946.5
20260502014101 12 88 0.0 1.6 0.00 0.00 0.00 47 946.4
20260502014001 12 89 1.6 1.6 0.00 0.00 0.00 48 946.6
20260502013901 12 89 0.0 1.6 0.00 0.00 0.00 48 946.6
20260502013800 12 89 0.0 1.6 0.00 0.00 0.00 48 946.4
20260502013701 12 89 0.0 1.6 0.00 0.00 0.00 47 946.3
20260502013601 12 92 0.0 1.6 0.00 0.00 0.00 47 946.5
20260502013502 13 94 0.0 1.6 0.00 0.00 0.00 47 946.4
20260502013401 13 96 0.0 1.6 0.00 0.00 0.00 47 946.5
20260502013301 13 92 0.0 1.6 0.00 0.00 0.00 47 946.4
20260502013201 13 93 0.0 1.6 0.00 0.00 0.00 47 946.7
20260502013101 13 94 0.0 1.6 0.00 0.00 0.00 47 946.5
20260502013000 13 101 1.6 1.6 0.00 0.00 0.00 47 946.5
20260502012901 13 100 1.6 1.6 0.00 0.00 0.00 47 946.5
20260502012801 13 87 1.6 1.6 0.00 0.00 0.00 47 946.5
20260502012701 13 101 1.6 1.6 0.00 0.00 0.00 47 946.5
20260502012602 13 105 1.6 1.6 0.00 0.00 0.00 47 946.5
20260502012501 13 102 1.6 1.6 0.00 0.00 0.00 47 946.7
20260502012402 13 105 1.6 1.6 0.00 0.00 0.00 47 946.5
20260502012301 13 103 1.6 1.6 0.00 0.00 0.00 47 946.6
20260502012201 12 104 1.6 1.6 0.00 0.00 0.00 47 946.7
20260502012101 12 102 1.6 1.6 0.00 0.00 0.00 47 946.7
20260502012001 12 102 1.6 1.6 0.00 0.00 0.00 47 946.5
20260502011900 12 102 1.6 1.6 0.00 0.00 0.00 47 946.5
20260502011801 12 105 0.0 1.6 0.00 0.00 0.00 47 946.5
20260502011702 12 102 1.6 1.6 0.00 0.00 0.00 47 946.6
20260502011601 12 103 0.0 1.6 0.00 0.00 0.00 47 946.7
20260502011500 13 90 0.0 1.6 0.00 0.00 0.00 47 946.6
20260502011401 13 96 0.0 1.6 0.00 0.00 0.00 47 946.7
20260502011302 13 96 0.0 1.6 0.00 0.00 0.00 47 946.7
20260502011201 13 94 0.0 1.6 0.00 0.00 0.00 47 946.7
20260502011102 13 92 0.0 1.6 0.00 0.00 0.00 47 946.6
20260502011001 13 88 1.6 1.6 0.00 0.00 0.00 47 946.6
20260502010901 13 88 1.6 1.6 0.00 0.00 0.00 47 946.6
20260502010801 13 87 1.6 1.6 0.00 0.00 0.00 47 946.8
20260502010701 13 88 1.6 1.6 0.00 0.00 0.00 47 946.6
20260502010601 13 88 1.6 1.6 0.00 0.00 0.00 47 946.7
20260502010501 13 87 1.6 1.6 0.00 0.00 0.00 47 946.8
20260502010402 13 91 1.6 1.6 0.00 0.00 0.00 47 946.7
20260502010301 13 91 1.6 1.6 0.00 0.00 0.00 47 946.6
20260502010201 13 91 0.0 1.6 0.00 0.00 0.00 47 946.7
20260502010100 13 91 1.6 1.6 0.00 0.00 0.00 47 946.5
20260502010001 13 90 1.6 1.6 0.00 0.00 0.00 47 946.7
20260502005901 13 86 1.6 1.6 0.00 0.00 0.00 47 946.6
20260502005801 13 86 1.6 1.6 0.00 0.00 0.00 47 946.8
20260502005701 13 86 1.6 1.6 0.00 0.00 0.00 47 946.7
20260502005601 13 86 1.6 1.6 0.00 0.00 0.00 47 946.6
20260502005501 13 96 1.6 1.6 0.00 0.00 0.00 47 946.7
20260502005401 13 88 0.0 1.6 0.00 0.00 0.00 47 946.6
20260502005305 13 84 1.6 1.6 0.00 0.00 0.00 47 946.7
20260502005200 13 88 0.0 1.6 0.00 0.00 0.00 47 946.8
20260502005101 13 88 0.0 1.6 0.00 0.00 0.00 47 946.9
20260502005001 13 85 0.0 1.6 0.00 0.00 0.00 47 946.7
20260502004901 13 85 0.0 1.6 0.00 0.00 0.00 47 946.7
20260502004801 12 85 0.0 1.6 0.00 0.00 0.00 47 946.7
20260502004701 12 85 0.0 1.6 0.00 0.00 0.00 47 946.8
20260502004601 12 85 0.0 1.6 0.00 0.00 0.00 47 946.7
20260502004501 12 85 0.0 1.6 0.00 0.00 0.00 47 946.7
20260502004402 12 85 0.0 1.6 0.00 0.00 0.00 47 946.7
20260502004301 12 85 1.6 1.6 0.00 0.00 0.00 47 946.5
20260502004201 12 85 1.6 1.6 0.00 0.00 0.00 47 946.7
20260502004101 12 84 1.6 1.6 0.00 0.00 0.00 47 946.5
20260502004001 12 84 1.6 1.6 0.00 0.00 0.00 48 946.6
20260502003901 12 85 1.6 1.6 0.00 0.00 0.00 48 946.7
20260502003801 12 79 1.6 1.6 0.00 0.00 0.00 48 946.6
20260502003701 12 74 0.0 1.6 0.00 0.00 0.00 48 946.7
20260502003600 12 71 0.0 0.0 0.00 0.00 0.00 48 946.7
20260502003506 12 71 0.0 0.0 0.00 0.00 0.00 48 947.0
20260502003400 12 71 0.0 0.0 0.00 0.00 0.00 48 946.7
20260502003301 12 71 0.0 0.0 0.00 0.00 0.00 48 946.8
20260502003206 12 71 0.0 0.0 0.00 0.00 0.00 48 946.7
20260502003101 12 71 0.0 0.0 0.00 0.00 0.00 48 946.8
20260502003000 12 71 0.0 0.0 0.00 0.00 0.00 48 946.9
20260502002902 12 71 0.0 0.0 0.00 0.00 0.00 48 946.8
20260502002801 12 71 0.0 0.0 0.00 0.00 0.00 48 946.6
20260502002700 12 71 0.0 0.0 0.00 0.00 0.00 48 946.9
20260502002601 12 71 0.0 0.0 0.00 0.00 0.00 48 946.6
20260502002501 12 71 0.0 0.0 0.00 0.00 0.00 48 946.8
20260502002401 12 71 0.0 0.0 0.00 0.00 0.00 48 946.8
20260502002301 12 71 0.0 0.0 0.00 0.00 0.00 48 946.7
20260502002201 12 71 0.0 0.0 0.00 0.00 0.00 48 946.9
20260502002101 12 71 0.0 0.0 0.00 0.00 0.00 48 946.9
20260502002000 12 71 0.0 0.0 0.00 0.00 0.00 48 946.8
20260502001900 12 71 0.0 0.0 0.00 0.00 0.00 48 947.0
20260502001801 12 71 0.0 0.0 0.00 0.00 0.00 48 946.8
20260502001701 12 71 0.0 0.0 0.00 0.00 0.00 48 946.9
20260502001601 12 71 0.0 0.0 0.00 0.00 0.00 48 946.9
20260502001501 12 71 0.0 0.0 0.00 0.00 0.00 48 947.0
20260502001401 12 71 0.0 0.0 0.00 0.00 0.00 48 947.0
20260502001301 12 71 0.0 0.0 0.00 0.00 0.00 48 947.0
20260502001201 12 71 0.0 0.0 0.00 0.00 0.00 48 947.0
20260502001101 12 71 0.0 0.0 0.00 0.00 0.00 48 947.0
20260502001002 12 71 0.0 0.0 0.00 0.00 0.00 48 946.9
20260502000901 12 71 0.0 0.0 0.00 0.00 0.00 47 946.8
20260502000801 12 71 0.0 1.6 0.00 0.00 0.00 47 946.8
20260502000701 12 71 0.0 1.6 0.00 0.00 0.00 47 946.9
20260502000601 12 70 0.0 1.6 0.00 0.00 0.00 47 946.9
20260502000501 12 70 1.6 1.6 0.00 0.00 0.00 47 946.8
20260502000402 12 70 1.6 1.6 0.00 0.00 0.00 47 946.8
20260502000302 12 66 1.6 1.6 0.00 0.00 0.00 47 946.7
20260502000201 12 66 1.6 1.6 0.00 0.00 0.00 47 946.8
20260502000101 12 64 0.0 1.6 0.00 0.00 0.00 47 946.8
20260502000002 12 62 0.0 1.6 0.00 0.00 0.00 47 946.7
20260501235901 12 59 1.6 1.6 0.00 0.00 0.00 47 946.8
20260501235801 12 60 0.0 1.6 0.00 0.00 0.00 47 946.7
20260501235701 12 59 0.0 1.6 0.00 0.00 0.00 47 946.8
20260501235601 12 59 0.0 1.6 0.00 0.00 0.00 48 946.7
20260501235501 12 68 0.0 1.6 0.00 0.00 0.00 48 947.0
20260501235401 12 68 0.0 1.6 0.00 0.00 0.00 48 946.8
20260501235301 12 68 0.0 0.0 0.00 0.00 0.00 48 947.1
20260501235201 12 68 0.0 0.0 0.00 0.00 0.00 48 946.9
20260501235105 12 68 0.0 0.0 0.00 0.00 0.00 48 946.9
20260501235001 12 68 0.0 0.0 0.00 0.00 0.00 48 947.0
20260501234901 12 68 0.0 0.0 0.00 0.00 0.00 48 946.9
20260501234801 12 68 0.0 0.0 0.00 0.00 0.00 48 946.8
20260501234701 12 68 0.0 0.0 0.00 0.00 0.00 48 946.8
20260501234601 12 65 0.0 1.6 0.00 0.00 0.00 48 946.8
20260501234502 12 65 0.0 1.6 0.00 0.00 0.00 48 946.9
20260501234401 12 65 0.0 1.6 0.00 0.00 0.00 48 946.8
20260501234301 12 65 0.0 1.6 0.00 0.00 0.00 48 946.7
20260501234201 12 65 0.0 1.6 0.00 0.00 0.00 48 946.8
20260501234101 12 65 0.0 1.6 0.00 0.00 0.00 48 947.0
20260501234001 12 65 0.0 1.6 0.00 0.00 0.00 48 946.9
20260501233901 12 65 0.0 1.6 0.00 0.00 0.00 48 946.9
20260501233801 12 65 0.0 0.0 0.00 0.00 0.00 48 946.8
20260501233701 12 65 0.0 0.0 0.00 0.00 0.00 48 946.8
20260501233600 12 65 0.0 0.0 0.00 0.00 0.00 48 947.0
20260501233501 12 65 0.0 0.0 0.00 0.00 0.00 48 947.1
20260501233402 12 65 0.0 0.0 0.00 0.00 0.00 48 946.9
20260501233301 12 65 0.0 0.0 0.00 0.00 0.00 48 947.0
20260501233201 13 65 0.0 0.0 0.00 0.00 0.00 48 946.9
20260501233101 13 65 0.0 0.0 0.00 0.00 0.00 47 947.0
20260501233002 13 65 0.0 0.0 0.00 0.00 0.00 47 947.1
20260501232901 13 65 0.0 0.0 0.00 0.00 0.00 47 946.9
20260501232801 13 65 0.0 1.6 0.00 0.00 0.00 47 946.9
20260501232701 13 65 0.0 1.6 0.00 0.00 0.00 47 946.9
20260501232601 13 65 0.0 1.6 0.00 0.00 0.00 47 946.9
20260501232501 13 64 0.0 1.6 0.00 0.00 0.00 47 947.0